This demonstration page uses our WeatherBlox Daily Observations layout. Learn more.

Left ArrowRight Arrow

Hourly Observations for July 21, 2016

Temp ( °F °C ) Dew Point ( °F °C ) Humidity (%) Winds ( mph kmh ) Pressure ( in mb ) Visibility ( mi km ) Precip ( " mm )
12:58 am 00:58 Clear 82 27.8 76 24.4 82 82 SSE 13 20 29.95 1014 10 16 0.00 0.00
1:58 am 01:58 Clear 82 27.5 75 23.7 80 80 SSE 10 17 29.93 1013 10 16 0.00 0.00
2:58 am 02:58 Clear 80 26.9 74 23.4 81 81 SE 8 13 29.93 1013 10 16 0.00 0.00
3:58 am 03:58 Clear 76 24.7 74 23.5 93 93 SSE 8 13 29.93 1014 10 16 0.00 0.00
4:58 am 04:58 Clear 77 25.1 74 23.2 89 89 SE 7 11 29.92 1013 10 16 0.00 0.00
5:58 am 05:58 Mostly Clear 77 25 74 23.3 90 90 ESE 7 11 29.92 1013 10 16 0.00 0.00
6:58 am 06:58 Sunny 77 25.1 73 22.9 88 88 SE 7 11 29.92 1013 10 16 0.00 0.00
7:58 am 07:58 Sunny 81 27.1 73 22.8 77 77 SSE 8 13 29.91 1013 10 16 0.00 0.00
8:58 am 08:58 Sunny 83 28.6 74 23.1 72 72 S 8 13 29.92 1013 10 16 0.00 0.00
9:58 am 09:58 Sunny 86 30.2 74 23.5 67 67 S 14 22 29.91 1013 10 16 0.00 0.00
10:58 am 10:58 Sunny 89 31.4 75 23.7 64 64 S 12 19 29.91 1013 10 16 0.00 0.00
11:58 am 11:58 Sunny 90 32.3 75 23.9 61 61 SSW 13 20 29.93 1014 10 16 0.00 0.00
12:58 pm 12:58 Sunny 92 33.1 76 24.3 60 60 S 13 20 29.93 1013 10 16 0.00 0.00
1:58 pm 13:58 Sunny 93 34 77 24.8 59 59 S 10 17 29.92 1013 10 16 0.00 0.00
2:58 pm 14:58 Sunny 94 34.5 76 24.7 57 57 S 10 17 29.87 1012 10 16 0.00 0.00
3:58 pm 15:58 Sunny 95 35.2 78 25.3 56 56 S 13 20 29.89 1012 10 16 0.00 0.00
4:58 pm 16:58 Sunny 96 35.6 79 25.9 57 57 S 9 15 29.88 1012 10 16 0.00 0.00
5:58 pm 17:58 Sunny 96 35.5 80 26.8 61 61 S 8 13 29.89 1012 10 16 0.00 0.00
6:58 pm 18:58 Sunny 94 34.5 82 27.6 67 67 SSE 7 11 29.89 1012 10 16 0.00 0.00
7:58 pm 19:58 Sunny 91 32.9 81 27.4 73 73 SSE 6 9 29.89 1012 10 16 0.00 0.00
8:58 pm 20:58 Mostly Clear 89 31.4 81 27 77 77 SE 6 9 29.88 1012 10 16 0.00 0.00
9:58 pm 21:58 Mostly Cloudy 85 29.7 82 27.6 89 89 E 6 9 29.89 1012 10 16 0.00 0.00
10:58 pm 22:58 Partly Cloudy 86 30 79 26.3 81 81 SE 7 11 29.90 1012 10 16 0.00 0.00
11:58 pm 23:58 Mostly Cloudy 86 30.1 78 25.5 76 76 SSE 6 9 29.85 1011 10 16 0.00 0.00

Powered by AerisWeather